Regional Weather Roundup
Issued by NWS Midland/Odessa, TX

Skip options and go directly to product.
Home | Oldest Version | Next Version | Current Version | All | Text Only | Save Text | Print | Product List | Glossary On

Skip product version selection by date and time.   
416
ASUS44 KMAF 201001
RWRMAF
MIDLAND AREA WEATHER ROUNDUP
NATIONAL WEATHER SERVICE MIDLAND TX
400 AM CST SAT DEC 20 2014

...IN SOUTHWEST TEXAS AND SOUTHEAST NEW MEXICO...

CITY           SKY/WX    TMP DP  RH WIND       PRES   REMARKS
ALPINE         CLEAR     31  27  83 SW9       30.20R WCI  23
ANDREWS        FOG       36  36 100 CALM      30.16F VSB 1/2
ARTESIA        PTCLDY    28  25  86 W6        30.14S WCI  22
BIG SPRING     CLOUDY    31  29  92 CALM      30.19S VSB 1/4
CARLSBAD       CLEAR     31  24  75 NW6       30.12S WCI  25
DRYDEN           N/A     49  44  83 N5        30.14S
FORT STOCKTON  CLEAR     42  33  70 SW12      30.13F WCI  36
GUAD PASS      NOT AVBL
HOBBS          FOG       36  36 100 CALM      30.14F VSB<1/4
MARFA          PTCLDY    23  19  86 NW8       30.16S WCI  14
MIDLAND AIRPK  MOCLDY    32  32 100 NW3       30.17S FOG
MIDLAND INTL   FOG       36  36 100 CALM      30.15F VSB 1/4
ODESSA         FOG       38  37  97 SE6       30.16S VSB 1/2 WCI  33
PECOS          CLEAR     33  29  83 NE5       30.15F WCI  29
PRESIDIO       FAIR      42  30  62 N9        30.14S WCI  36
SEMINOLE       FOG       37  37  99 CALM      30.17S VSB 1/2
SNYDER         CLOUDY    41  36  83 CALM      30.18S
WINK           CLEAR     30  26  85 N7        30.13S WCI  23
$$
...OTHER STATIONS IN TEXAS...

CITY           SKY/WX    TMP DP  RH WIND       PRES   REMARKS
ABILENE        CLOUDY    45  38  76 CALM      30.19S
AMARILLO       CLOUDY    36  34  92 S14       30.12F WCI  27
AUSTIN         CLOUDY    50  44  80 N13       30.19R
BROWNSVILLE    CLOUDY    60  58  92 NW7       30.10S FOG
CORPUS CHRISTI DRIZZLE   54  49  83 N14       30.16R
DALLAS FTW     CLOUDY    46  42  86 N5        30.21S
DEL RIO        CLOUDY    54  47  77 E6        30.15S
EL PASO        PTCLDY    34  26  72 N3        30.14F
HOUSTON INT    CLOUDY    51  49  92 N10       30.14S
LUBBOCK        CLOUDY    38  36  92 SW9       30.15S FOG     WCI  31
SAN ANGELO     CLOUDY    45  40  82 CALM      30.18S
SAN ANTONIO    CLOUDY    48  43  82 N14G23    30.17R
WACO           CLOUDY    48  45  89 N5        30.21R FOG
WICHITA FALLS  NOT AVBL
$$
...OTHER LOCATIONS IN NEW MEXICO...

CITY           SKY/WX    TMP DP  RH WIND       PRES   REMARKS
ALAMAGORDO     CLEAR     30  27  86 N3        30.16S
ALBUQUERQUE    PTCLDY    32  24  72 N7        30.18S WCI  26
CANNON AFB     FOG       27  27  99 S5        30.10F VSB 1/4 WCI  22
CLOVIS         CLOUDY    28  27  93 S8        30.10F VSB 1/2 WCI  20
HOLLOMAN AFB   CLEAR     27  24  89 NE3       30.15S
ROSWELL        PTCLDY    26  18  71 S3        30.12S
RUIDOSO        PTCLDY    28  19  69 W3        30.13F
SANTA FE       PTCLDY    25  18  74 NW10      30.14S WCI  15
TRUTH OR CONSE CLEAR     30  22  72 NW7       30.16S WCI  23
TUCUMCARI      PTCLDY    25  20  81 W5        30.07S WCI  19
$$

USA.gov is the U.S. government's official web portal to all federal, state and local government web resources and services.